SCP
-0 -0 -0 -0 -1 -0 -0 -0 -0 0 0 0 0 0 0 0 0 0 -0 0 0 1 1 1 0 0 0 0 0 -0 -0 -0 -0 -0 -0 -0 -0 0 0 0 0 0 0
-0 -0 -0 -0 -0 -0 -0 0 0 0 0 0 -0 0 0 0 1 1 1 1 1 1 2 1 1 1 0 0 0 0 -0 0 0 0 -0 0 -0 0 0 0 0 0 0
-0 -0 -0 -0 -0 -0 0 0 0 0 0 0 -0 0 0 0 0 1 2 2 1 1 2 2 2 1 1 1 1 0 0 0 0 0 0 1 0 0 0 0 0 0 1
-0 -1 -0 -0 -0 -0 -0 0 0 -0 0 0 -0 0 0 1 1 1 3 3 2 2 3 2 2 2 1 1 1 1 1 1 0 1 1 0 1 0 -0 -0 0 1 2
-0 -1 -0 -0 -0 -0 -0 0 0 0 -0 1 -0 -0 1 0 1 2 3 4 3 3 3 3 3 4 3 2 1 1 1 1 1 1 1 0 0 0 0 -0 -0 -0 1
1 -0 -0 -0 0 0 0 0 1 1 1 1 1 0 0 1 2 2 1 2 1 1 1 2 2 2 2 2 2 1 1 1 1 1 1 1 1 0 0 0 0 0 -0
1 -0 -1 0 0 0 0 0 1 2 1 1 1 1 2 2 1 2 1 2 1 0 0 2 1 1 1 1 1 1 1 1 1 1 1 2 1 1 1 1 1 1 0
1 -0 -0 0 0 0 0 1 1 2 2 2 3 4 3 2 2 2 2 1 1 1 1 1 1 1 1 1 1 0 0 0 0 1 1 1 1 2 1 1 1 1 0
0 0 0 0 0 1 1 1 1 2 3 4 4 3 3 2 1 1 1 1 1 0 0 1 1 0 1 1 1 0 0 0 0 0 0 1 1 1 1 1 2 1 1
-0 1 0 0 1 1 1 1 2 3 3 3 3 3 2 1 1 1 1 1 1 1 1 1 1 1 0 0 1 0 0 0 0 0 0 0 0 0 0 1 1 1 1
-0 1 1 1 1 1 1 2 2 2 3 3 3 3 2 1 1 1 1 1 2 2 1 1 1 1 1 0 0 0 0 0 0 0 0 0 0 0 0 0 1 1 2
-0 0 1 0 0 1 1 1 2 2 3 3 3 2 2 1 0 1 1 1 1 1 1 1 1 1 1 0 0 0 0 0 0 0 0 0 0 0 0 0 0 1 1
0 0 1 1 1 1 3 3 3 3 2 3 2 2 2 1 1 1 1 1 1 1 1 1 1 0 0 0 0 0 0 0 0 0 0 0 0 0 0 0 0 1 1
0 0 1 4 4 4 5 4 4 3 3 2 1 1 1 1 0 0 1 1 2 1 1 1 1 1 0 0 0 0 0 0 0 0 0 0 0 0 0 0 0 0 0
0 0 1 4 5 6 6 6 6 6 4 2 1 1 1 0 0 0 0 1 1 1 1 1 0 0 0 0 0 0 0 0 0 0 0 0 0 0 0 0 0 0 0
0 1 1 4 5 6 7 7 8 7 5 2 1 1 1 0 0 0 0 1 1 1 1 0 0 0 0 0 0 0 0 0 0 0 0 0 0 0 0 0 0 0 0
0 1 1 3 6 6 7 7 8 7 4 2 1 1 0 0 0 0 0 1 1 1 1 1 0 0 0 0 0 0 0 0 0 0 0 0 0 0 0 0 0 0 0
0 1 0 2 6 6 8 7 5 4 2 1 1 1 0 0 0 0 1 1 2 1 1 0 0 0 0 0 -0 0 0 -0 0 0 0 0 0 0 0 0 0 0 0
1 1 1 2 6 6 7 5 5 4 2 1 1 1 0 0 0 0 1 2 1 1 0 0 0 0 0 0 0 0 0 0 0 0 0 0 0 -0 0 0 0 0 0
1 0 0 1 6 7 6 4 4 3 1 1 1 1 1 1 1 1 1 2 1 1 0 0 0 0 0 0 0 0 -0 0 0 0 0 0 -0 0 -0 0 0 0 0
0 0 1 1 5 7 5 5 4 2 2 2 2 1 1 1 1 1 1 2 1 1 0 0 0 0 0 0 0 0 -0 -0 0 0 0 0 -0 -0 0 0 0 0 0
1 1 2 3 6 6 6 4 3 2 2 3 2 1 1 1 1 2 1 1 1 1 0 1 0 0 0 0 0 0 -0 0 0 -0 -0 -0 -0 -0 -0 -0 0 0 0
2 1 2 3 5 6 5 5 4 4 5 4 3 2 2 1 1 1 1 1 0 0 0 0 0 0 0 0 -0 0 -0 0 0 0 -0 -0 -0 -0 -0 -0 -0 -0 0
2 2 2 2 4 6 5 4 5 6 4 3 2 1 0 1 0 -0 -0 0 2 1 0 0 0 0 0 0 0 0 -0 0 0 0 0 -0 0 -0 -0 -0 -0 0 0
0 1 2 4 2 4 2 7 6 3 0 0 0 0 0 0 0 0 0 1 0 0 0 0 0 0 0 -0 0 0 -0 0 0 -0 -0 -0 -0 -0 -0 -0 0 -0 -0
0 0 0 1 2 3 2 0 0 0 0 0 0 0 0 0 0 0 0 0 0 0 0 0 0 0 -0 -0 0 0 -0 0 0 0 0 -0 0 -0 -0 -0 0 -0 -0
Wind_Speed_500mb
41 40 40 39 37 37 34 34 33 28 27 25 15 15 9 17 18 28 29 18 32 34 36 43 46 45 44 50 40 42 52 60 58 51 58 59 57 58 61 48 51 53 52
46 48 46 44 42 40 37 34 31 28 24 21 21 20 11 13 20 23 21 28 31 37 43 43 43 43 45 49 52 55 54 58 54 50 52 58 67 59 66 65 59 64 59
50 52 52 49 45 43 41 35 30 30 27 29 15 19 18 20 19 13 20 20 26 24 40 44 42 41 42 46 46 49 47 56 56 57 47 23 22 40 45 64 65 67 64
63 57 56 54 51 47 39 39 34 31 29 24 29 25 20 17 13 20 12 27 31 37 41 41 46 45 43 41 43 44 51 49 53 55 60 63 64 58 68 67 46 74 70
70 74 63 57 51 47 45 41 38 33 30 26 26 23 20 12 20 13 21 24 25 23 32 40 37 37 45 45 44 47 51 51 56 55 57 60 63 78 80 72 79 78 52
64 63 64 60 53 51 48 45 43 39 35 34 26 32 30 31 30 26 29 31 37 47 32 43 49 55 57 55 53 55 60 60 56 59 62 61 59 64 71 75 84 92 78
62 60 69 65 56 55 53 51 49 44 38 34 27 21 23 22 21 28 35 42 51 55 47 46 50 56 55 52 51 51 52 54 56 56 61 64 69 68 69 73 89 87 80
89 88 78 69 63 55 55 53 50 46 42 33 32 38 29 20 21 29 38 44 47 43 40 47 52 57 54 45 47 50 51 50 52 58 63 65 69 71 75 74 72 81 82
74 77 74 71 66 60 55 50 54 45 45 51 46 35 27 25 28 35 42 44 46 48 45 47 49 50 45 46 49 52 53 53 56 58 57 61 66 68 70 70 80 80 68
38 70 69 64 58 54 52 51 48 52 48 47 39 31 27 27 31 38 41 45 49 50 51 50 46 46 46 46 49 54 57 62 64 67 71 74 79 83 83 81 71 78 84
18 54 50 48 50 49 51 48 45 41 44 41 32 33 27 27 31 35 38 44 47 46 47 45 43 49 49 55 58 60 64 75 87 79 82 91 95 97 90 83 78 80 78
21 33 50 51 55 53 53 44 48 43 43 36 43 33 27 28 29 32 38 40 43 42 39 40 47 53 54 55 57 65 83 77 84 90 90 108 110 107 99 91 87 86 80
13 18 37 55 62 55 52 52 50 45 33 42 38 30 26 26 28 34 37 38 37 37 39 43 48 52 59 56 54 72 65 79 96 109 116 127 119 120 112 108 93 85 84
13 18 24 44 55 56 51 56 49 40 36 39 33 25 22 23 27 31 33 30 31 36 44 46 50 53 55 53 61 62 92 99 109 110 115 119 118 101 87 86 94 92 83
11 18 18 39 51 55 51 53 52 39 42 39 31 24 20 21 25 28 27 25 26 34 44 46 48 52 47 51 62 87 99 107 120 114 115 113 99 85 79 82 90 91 87
7 14 23 34 50 51 49 53 48 47 46 41 30 21 21 19 22 22 25 28 27 35 39 43 47 48 47 68 81 93 105 123 124 115 112 94 83 79 78 82 86 91 88
5 13 26 27 44 47 45 48 44 45 41 36 28 25 19 18 18 20 19 23 29 33 38 41 46 46 59 68 89 99 111 125 104 103 83 70 73 75 64 61 65 69 81
6 16 25 33 43 50 56 52 46 44 44 36 27 22 17 14 16 13 16 20 28 31 31 41 43 52 67 71 98 100 108 136 82 69 59 59 64 52 43 54 53 56 68
8 16 22 25 44 49 51 45 46 46 39 32 27 21 18 16 13 13 16 21 25 24 31 37 49 53 73 71 93 106 124 113 86 56 44 49 45 29 36 36 44 45 54
12 13 12 17 31 41 40 46 47 42 38 36 29 24 22 17 17 15 13 21 27 24 27 35 35 44 67 71 85 98 103 114 106 62 41 38 33 28 28 30 36 40 44
13 13 15 26 34 42 46 51 47 43 42 33 32 29 22 19 18 13 20 25 26 23 28 29 31 50 57 65 74 91 105 97 102 81 50 33 31 22 19 19 15 23 23
16 14 16 24 35 47 49 46 46 44 41 37 30 25 23 21 16 21 23 16 19 30 25 21 38 46 50 58 65 81 88 92 93 94 69 58 20 10 5 12 9 4 12
18 18 20 26 33 49 53 49 47 38 40 34 28 24 22 21 20 19 18 22 22 6 8 21 34 36 43 51 70 72 87 88 66 86 82 84 73 57 44 24 10 4 7
18 17 20 31 45 50 49 45 46 42 40 27 16 15 28 32 20 20 23 30 6 19 27 25 23 27 31 42 56 74 76 86 72 44 68 81 81 77 81 78 67 56 41
22 21 23 25 26 37 50 56 48 48 39 31 19 13 30 40 30 29 22 20 20 18 18 16 16 21 29 36 41 49 62 71 64 64 76 55 66 79 78 81 80 73 70
26 28 31 34 33 34 34 50 31 50 42 36 31 46 38 42 32 41 40 37 30 12 12 10 11 26 34 37 34 27 48 48 57 60 71 79 75 56 62 65 69 68 69
Wind_Direction_500mb
186 182 182 182 186 191 198 198 200 215 209 209 216 226 227 247 278 271 258 254 262 299 284 280 275 271 275 270 283 267 269 266 267 277 275 270 265 272 276 265 248 251 248
182 179 185 185 190 195 204 208 205 220 220 217 208 229 235 267 271 275 296 307 303 294 296 313 301 289 281 281 273 283 273 268 269 269 275 274 277 259 258 267 249 245 247
178 179 185 189 193 199 204 213 207 215 227 212 200 231 249 259 265 279 277 272 318 313 311 310 313 302 295 290 285 282 280 278 276 268 253 266 268 290 284 271 259 245 245
175 181 187 191 194 198 209 206 219 207 223 210 196 221 234 263 266 315 288 297 327 326 316 306 312 309 304 287 288 285 284 284 279 278 269 259 263 278 291 275 289 253 242
184 178 187 194 198 197 201 210 217 211 202 230 210 227 239 220 261 233 270 273 309 310 318 312 299 292 296 298 292 295 290 285 283 279 278 273 270 259 254 273 275 265 266
182 183 186 189 198 199 196 203 213 209 199 215 219 209 209 228 242 277 294 307 296 309 300 285 283 285 291 291 284 282 284 287 284 281 277 270 262 259 256 256 266 267 263
163 188 186 183 192 198 195 197 214 211 208 210 213 218 229 245 282 295 297 301 308 312 308 295 296 296 295 296 294 292 289 288 284 288 286 279 273 269 266 264 263 260 267
178 208 183 183 189 199 197 193 213 217 206 203 197 214 234 250 271 280 297 304 314 312 296 292 294 296 300 304 302 300 297 294 288 284 280 285 281 278 272 266 267 263 257
192 183 180 183 186 194 199 199 211 215 197 203 214 220 239 264 280 294 309 320 314 308 305 302 302 305 305 301 300 300 301 299 298 297 292 288 287 285 278 269 262 261 258
228 175 182 183 184 194 202 200 213 215 208 213 216 227 247 271 290 307 318 317 313 314 312 311 312 312 310 309 303 301 300 299 298 297 292 289 288 287 285 279 271 263 262
249 172 175 181 191 197 202 199 216 214 205 216 218 225 249 276 298 311 315 313 314 312 307 312 317 314 306 304 304 305 307 306 302 296 294 294 294 287 284 279 275 265 259
222 197 182 188 190 197 198 199 205 210 214 205 221 234 256 280 301 310 314 314 314 312 317 321 311 306 309 309 310 312 312 312 308 301 295 298 297 287 279 276 270 266 259
279 291 205 191 188 194 196 196 204 212 214 222 231 242 264 292 305 314 318 317 322 326 319 311 309 310 311 308 308 318 309 306 300 297 292 290 288 289 281 270 264 260 260
215 243 256 191 182 190 194 194 204 204 218 232 238 248 274 291 309 315 316 321 322 314 311 305 308 311 315 317 318 306 307 306 308 301 292 290 288 284 273 268 263 260 256
193 245 254 195 187 190 193 197 204 202 217 231 238 252 269 293 307 308 313 312 307 306 309 317 319 326 322 323 312 314 316 316 312 310 299 292 289 285 273 263 265 261 256
221 258 246 196 189 188 193 197 201 206 217 231 237 244 265 290 302 309 313 316 316 314 321 328 331 328 328 319 324 324 321 322 314 310 305 294 289 287 276 263 260 254 249
301 261 239 229 203 199 203 205 205 215 226 229 223 240 269 294 303 311 327 314 311 320 334 338 343 331 327 331 333 336 333 332 318 307 302 295 290 288 278 270 265 252 240
310 297 293 240 214 212 212 216 212 219 223 226 224 242 274 285 291 304 300 305 310 326 337 345 331 323 335 339 342 341 345 339 331 311 305 299 295 286 278 273 262 253 242
310 284 276 278 221 210 214 219 205 211 220 221 227 239 258 264 268 275 297 323 331 329 331 331 328 332 345 340 348 350 352 346 346 329 317 317 301 280 288 274 263 253 241
292 279 276 249 209 205 207 205 198 211 218 217 227 243 254 256 248 268 306 334 336 337 330 337 334 335 338 344 351 354 356 1 1 339 320 333 329 285 278 279 264 251 240
297 277 247 223 217 209 207 202 207 216 221 220 225 241 253 251 255 296 307 331 329 328 333 333 350 337 338 356 358 2 2 1 7 10 22 344 331 314 269 257 271 236 222
307 275 245 225 211 206 206 209 209 220 219 222 233 237 245 251 241 257 282 324 314 314 327 333 329 339 352 2 359 7 7 4 15 23 36 49 24 13 300 238 264 252 196
323 275 247 234 225 209 211 217 219 219 221 223 230 237 246 253 255 255 282 300 307 329 332 334 334 342 0 11 0 4 10 5 18 28 33 45 61 70 65 60 48 326 269
323 321 298 241 221 214 216 231 221 221 220 214 218 287 290 278 262 252 277 286 174 289 318 326 341 350 357 5 5 6 2 3 9 20 31 42 46 56 64 65 65 67 69
307 297 296 307 281 255 226 226 209 209 198 193 163 264 259 265 276 265 254 264 262 283 311 332 354 11 11 11 4 359 360 358 10 33 45 39 43 54 57 57 59 64 70
291 293 287 278 277 282 273 246 231 237 219 247 310 281 248 253 258 242 247 233 249 277 321 327 11 19 13 4 359 354 356 354 6 26 39 42 44 47 51 53 58 58 57
Wind_Speed_850mb
41 40 40 39 37 37 34 34 33 28 27 25 15 15 9 17 18 28 29 18 32 34 36 43 46 45 44 50 40 42 52 60 58 51 58 59 57 58 61 48 51 53 52
46 48 46 44 42 40 37 34 31 28 24 21 21 20 11 13 20 23 21 28 31 37 43 43 43 43 45 49 52 55 54 58 54 50 52 58 67 59 66 65 59 64 59
50 52 52 49 45 43 41 35 30 30 27 29 15 19 18 20 19 13 20 20 26 24 40 44 42 41 42 46 46 49 47 56 56 57 47 23 22 40 45 64 65 67 64
63 57 56 54 51 47 39 39 34 31 29 24 29 25 20 17 13 20 12 27 31 37 41 41 46 45 43 41 43 44 51 49 53 55 60 63 64 58 68 67 46 74 70
70 74 63 57 51 47 45 41 38 33 30 26 26 23 20 12 20 13 21 24 25 23 32 40 37 37 45 45 44 47 51 51 56 55 57 60 63 78 80 72 79 78 52
64 63 64 60 53 51 48 45 43 39 35 34 26 32 30 31 30 26 29 31 37 47 32 43 49 55 57 55 53 55 60 60 56 59 62 61 59 64 71 75 84 92 78
62 60 69 65 56 55 53 51 49 44 38 34 27 21 23 22 21 28 35 42 51 55 47 46 50 56 55 52 51 51 52 54 56 56 61 64 69 68 69 73 89 87 80
89 88 78 69 63 55 55 53 50 46 42 33 32 38 29 20 21 29 38 44 47 43 40 47 52 57 54 45 47 50 51 50 52 58 63 65 69 71 75 74 72 81 82
74 77 74 71 66 60 55 50 54 45 45 51 46 35 27 25 28 35 42 44 46 48 45 47 49 50 45 46 49 52 53 53 56 58 57 61 66 68 70 70 80 80 68
38 70 69 64 58 54 52 51 48 52 48 47 39 31 27 27 31 38 41 45 49 50 51 50 46 46 46 46 49 54 57 62 64 67 71 74 79 83 83 81 71 78 84
18 54 50 48 50 49 51 48 45 41 44 41 32 33 27 27 31 35 38 44 47 46 47 45 43 49 49 55 58 60 64 75 87 79 82 91 95 97 90 83 78 80 78
21 33 50 51 55 53 53 44 48 43 43 36 43 33 27 28 29 32 38 40 43 42 39 40 47 53 54 55 57 65 83 77 84 90 90 108 110 107 99 91 87 86 80
13 18 37 55 62 55 52 52 50 45 33 42 38 30 26 26 28 34 37 38 37 37 39 43 48 52 59 56 54 72 65 79 96 109 116 127 119 120 112 108 93 85 84
13 18 24 44 55 56 51 56 49 40 36 39 33 25 22 23 27 31 33 30 31 36 44 46 50 53 55 53 61 62 92 99 109 110 115 119 118 101 87 86 94 92 83
11 18 18 39 51 55 51 53 52 39 42 39 31 24 20 21 25 28 27 25 26 34 44 46 48 52 47 51 62 87 99 107 120 114 115 113 99 85 79 82 90 91 87
7 14 23 34 50 51 49 53 48 47 46 41 30 21 21 19 22 22 25 28 27 35 39 43 47 48 47 68 81 93 105 123 124 115 112 94 83 79 78 82 86 91 88
5 13 26 27 44 47 45 48 44 45 41 36 28 25 19 18 18 20 19 23 29 33 38 41 46 46 59 68 89 99 111 125 104 103 83 70 73 75 64 61 65 69 81
6 16 25 33 43 50 56 52 46 44 44 36 27 22 17 14 16 13 16 20 28 31 31 41 43 52 67 71 98 100 108 136 82 69 59 59 64 52 43 54 53 56 68
8 16 22 25 44 49 51 45 46 46 39 32 27 21 18 16 13 13 16 21 25 24 31 37 49 53 73 71 93 106 124 113 86 56 44 49 45 29 36 36 44 45 54
12 13 12 17 31 41 40 46 47 42 38 36 29 24 22 17 17 15 13 21 27 24 27 35 35 44 67 71 85 98 103 114 106 62 41 38 33 28 28 30 36 40 44
13 13 15 26 34 42 46 51 47 43 42 33 32 29 22 19 18 13 20 25 26 23 28 29 31 50 57 65 74 91 105 97 102 81 50 33 31 22 19 19 15 23 23
16 14 16 24 35 47 49 46 46 44 41 37 30 25 23 21 16 21 23 16 19 30 25 21 38 46 50 58 65 81 88 92 93 94 69 58 20 10 5 12 9 4 12
18 18 20 26 33 49 53 49 47 38 40 34 28 24 22 21 20 19 18 22 22 6 8 21 34 36 43 51 70 72 87 88 66 86 82 84 73 57 44 24 10 4 7
18 17 20 31 45 50 49 45 46 42 40 27 16 15 28 32 20 20 23 30 6 19 27 25 23 27 31 42 56 74 76 86 72 44 68 81 81 77 81 78 67 56 41
22 21 23 25 26 37 50 56 48 48 39 31 19 13 30 40 30 29 22 20 20 18 18 16 16 21 29 36 41 49 62 71 64 64 76 55 66 79 78 81 80 73 70
26 28 31 34 33 34 34 50 31 50 42 36 31 46 38 42 32 41 40 37 30 12 12 10 11 26 34 37 34 27 48 48 57 60 71 79 75 56 62 65 69 68 69
Wind_Direction_850mb
186 182 182 182 186 191 198 198 200 215 209 209 216 226 227 247 278 271 258 254 262 299 284 280 275 271 275 270 283 267 269 266 267 277 275 270 265 272 276 265 248 251 248
182 179 185 185 190 195 204 208 205 220 220 217 208 229 235 267 271 275 296 307 303 294 296 313 301 289 281 281 273 283 273 268 269 269 275 274 277 259 258 267 249 245 247
178 179 185 189 193 199 204 213 207 215 227 212 200 231 249 259 265 279 277 272 318 313 311 310 313 302 295 290 285 282 280 278 276 268 253 266 268 290 284 271 259 245 245
175 181 187 191 194 198 209 206 219 207 223 210 196 221 234 263 266 315 288 297 327 326 316 306 312 309 304 287 288 285 284 284 279 278 269 259 263 278 291 275 289 253 242
184 178 187 194 198 197 201 210 217 211 202 230 210 227 239 220 261 233 270 273 309 310 318 312 299 292 296 298 292 295 290 285 283 279 278 273 270 259 254 273 275 265 266
182 183 186 189 198 199 196 203 213 209 199 215 219 209 209 228 242 277 294 307 296 309 300 285 283 285 291 291 284 282 284 287 284 281 277 270 262 259 256 256 266 267 263
163 188 186 183 192 198 195 197 214 211 208 210 213 218 229 245 282 295 297 301 308 312 308 295 296 296 295 296 294 292 289 288 284 288 286 279 273 269 266 264 263 260 267
178 208 183 183 189 199 197 193 213 217 206 203 197 214 234 250 271 280 297 304 314 312 296 292 294 296 300 304 302 300 297 294 288 284 280 285 281 278 272 266 267 263 257
192 183 180 183 186 194 199 199 211 215 197 203 214 220 239 264 280 294 309 320 314 308 305 302 302 305 305 301 300 300 301 299 298 297 292 288 287 285 278 269 262 261 258
228 175 182 183 184 194 202 200 213 215 208 213 216 227 247 271 290 307 318 317 313 314 312 311 312 312 310 309 303 301 300 299 298 297 292 289 288 287 285 279 271 263 262
249 172 175 181 191 197 202 199 216 214 205 216 218 225 249 276 298 311 315 313 314 312 307 312 317 314 306 304 304 305 307 306 302 296 294 294 294 287 284 279 275 265 259
222 197 182 188 190 197 198 199 205 210 214 205 221 234 256 280 301 310 314 314 314 312 317 321 311 306 309 309 310 312 312 312 308 301 295 298 297 287 279 276 270 266 259
279 291 205 191 188 194 196 196 204 212 214 222 231 242 264 292 305 314 318 317 322 326 319 311 309 310 311 308 308 318 309 306 300 297 292 290 288 289 281 270 264 260 260
215 243 256 191 182 190 194 194 204 204 218 232 238 248 274 291 309 315 316 321 322 314 311 305 308 311 315 317 318 306 307 306 308 301 292 290 288 284 273 268 263 260 256
193 245 254 195 187 190 193 197 204 202 217 231 238 252 269 293 307 308 313 312 307 306 309 317 319 326 322 323 312 314 316 316 312 310 299 292 289 285 273 263 265 261 256
221 258 246 196 189 188 193 197 201 206 217 231 237 244 265 290 302 309 313 316 316 314 321 328 331 328 328 319 324 324 321 322 314 310 305 294 289 287 276 263 260 254 249
301 261 239 229 203 199 203 205 205 215 226 229 223 240 269 294 303 311 327 314 311 320 334 338 343 331 327 331 333 336 333 332 318 307 302 295 290 288 278 270 265 252 240
310 297 293 240 214 212 212 216 212 219 223 226 224 242 274 285 291 304 300 305 310 326 337 345 331 323 335 339 342 341 345 339 331 311 305 299 295 286 278 273 262 253 242
310 284 276 278 221 210 214 219 205 211 220 221 227 239 258 264 268 275 297 323 331 329 331 331 328 332 345 340 348 350 352 346 346 329 317 317 301 280 288 274 263 253 241
292 279 276 249 209 205 207 205 198 211 218 217 227 243 254 256 248 268 306 334 336 337 330 337 334 335 338 344 351 354 356 1 1 339 320 333 329 285 278 279 264 251 240
297 277 247 223 217 209 207 202 207 216 221 220 225 241 253 251 255 296 307 331 329 328 333 333 350 337 338 356 358 2 2 1 7 10 22 344 331 314 269 257 271 236 222
307 275 245 225 211 206 206 209 209 220 219 222 233 237 245 251 241 257 282 324 314 314 327 333 329 339 352 2 359 7 7 4 15 23 36 49 24 13 300 238 264 252 196
323 275 247 234 225 209 211 217 219 219 221 223 230 237 246 253 255 255 282 300 307 329 332 334 334 342 0 11 0 4 10 5 18 28 33 45 61 70 65 60 48 326 269
323 321 298 241 221 214 216 231 221 221 220 214 218 287 290 278 262 252 277 286 174 289 318 326 341 350 357 5 5 6 2 3 9 20 31 42 46 56 64 65 65 67 69
307 297 296 307 281 255 226 226 209 209 198 193 163 264 259 265 276 265 254 264 262 283 311 332 354 11 11 11 4 359 360 358 10 33 45 39 43 54 57 57 59 64 70
291 293 287 278 277 282 273 246 231 237 219 247 310 281 248 253 258 242 247 233 249 277 321 327 11 19 13 4 359 354 356 354 6 26 39 42 44 47 51 53 58 58 57